UTC  calendar date,Angular Size (deg),Planetographic Subspacecraft Longitude (deg),Planetographic Subspacecraft Latitude (deg),Sub-Point Radius (km),Observer Distance (km),Phase Angle (deg),Planetographic solar Longitude (deg),Planetographic solar Latitude (deg)
2/2/17 7:57,16.55455925,274.0350226,39.03408581,69834.79741,426887.2489,102.7432342,169.6999585,-2.58229435
2/2/17 8:07,16.97113056,280.0905748,39.67052612,69786.24549,414833.2701,102.6718126,175.7448231,-2.58231034
2/2/17 8:17,17.41429061,286.1468463,40.3397674,69734.78328,402647.5638,102.5949829,181.7896877,-2.58232633
2/2/17 8:27,17.88680111,292.2039261,41.04480146,69680.1429,390324.9441,102.512144,187.8345523,-2.58234233
2/2/17 8:37,18.3918275,298.2619196,41.78901588,69622.02383,377859.8832,102.4226039,193.8794169,-2.58235832
2/2/17 8:47,18.9330161,304.3209521,42.57626338,69560.08817,365246.4823,102.3255624,199.9242815,-2.58237431
2/2/17 8:57,19.5145897,310.3811739,43.41094656,69493.95514,352478.4411,102.2200894,205.9691461,-2.5823903
2/2/17 9:07,20.14146691,316.4427671,44.298122,69423.19481,339549.0252,102.1050976,212.0140107,-2.58240629
2/2/17 9:17,20.81941255,322.5059549,45.2436294,69347.32101,326451.0327,101.9793091,218.0588753,-2.58242228
2/2/17 9:27,21.55522866,328.5710138,46.25425266,69265.78326,313176.7591,101.8412116,224.1037399,-2.58243827
2/2/17 9:37,22.35699978,334.638291,47.33792301,69177.95816,299717.964,101.6890037,230.1486044,-2.58245426
2/2/17 9:47,23.23441107,340.7082288,48.50397722,69083.1402,286065.8413,101.5205242,236.193469,-2.58247025
2/2/17 9:57,24.19916574,346.7814007,49.76348947,68980.53304,272210.9963,101.3331588,242.2383337,-2.58248624
2/2/17 10:07,25.2655396,352.8585645,51.12970237,68869.24252,258143.4369,101.1237189,248.2831983,-2.58250223
2/2/17 10:17,26.4511279,358.9407442,52.61859351,68748.2744,243852.5895,100.8882784,254.3280629,-2.58251822
2/2/17 10:27,27.77786587,5.0293603,54.24963005,68616.54185,229327.3552,100.6219549,260.3729275,-2.58253421
2/2/17 10:37,29.27344577,11.12644566,56.0467877,68472.89263,214556.2352,100.3186092,266.4177921,-2.58255019
2/2/17 10:47,30.97331908,17.23502071,58.03994841,68316.17359,199527.5697,99.97043031,272.4626567,-2.58256618
2/2/17 10:57,32.92357923,23.35978512,60.26685017,68145.36576,184229.965,99.56734934,278.5075213,-2.58258217
2/2/17 11:07,35.18519756,29.50848994,62.77585834,67959.85191,168653.0373,99.09620345,284.5523859,-2.58259816
2/2/17 11:17,37.84038419,35.69492674,65.62998635,67759.93366,152788.695,98.53952049,290.5972505,-2.58261415
2/2/17 11:27,41.00235781,41.94630706,68.91286221,67547.82085,136633.3575,97.87372519,296.6421151,-2.58263013
2/2/17 11:37,44.83068737,48.32501284,72.7377952,67329.52049,120191.8458,97.06645179,302.6869797,-2.58264612
2/2/17 11:47,49.55584143,55.01311773,77.26182768,67118.43748,103484.3609,96.07247157,308.7318443,-2.58266211
2/2/17 11:57,55.51879864,62.86685118,82.70673907,66942.17824,86559.41756,94.8275061,314.7767089,-2.5826781
2/2/17 12:07,63.2335879,108.2782516,89.226855,66854.99916,69518.87389,93.23902619,320.8215736,-2.58269408
2/2/17 12:17,73.47498816,246.9722967,82.05641513,66958.44201,52569.12162,91.17384545,326.8664382,-2.58271007
2/2/17 12:27,87.34044182,255.2887851,70.98597203,67425.3226,36132.53695,88.44826716,332.9113028,-2.58272606
2/2/17 12:37,105.9487732,262.0857383,55.96749182,68479.18929,21101.30604,84.86089009,338.9561674,-2.58274204
2/2/17 12:47,128.1702322,268.5359334,35.03996419,70129.5825,9370.653416,80.47553914,345.001032,-2.58275803
2/2/17 12:57,141.4847911,274.8688532,7.45698591,71425.73285,4304.197436,76.65993655,351.0458966,-2.58277401
2/2/17 13:07,128.1828934,281.1719711,-20.97411242,70979.15285,8508.09466,75.93667979,357.0907613,-2.58279
2/2/17 13:17,105.9951833,287.5016802,-43.04787739,69522.77727,20032.01937,77.77131491,3.13562589,-2.58280598
2/2/17 13:27,87.40101502,293.9215724,-58.64153867,68269.53629,35252.47171,80.17268149,9.18049051,-2.58282197
2/2/17 13:37,73.53464164,300.5528618,-69.90547502,67487.98366,51981.05901,82.35904963,15.22535514,-2.58283795
2/2/17 13:47,63.28685838,307.7495916,-78.39640304,67074.37589,69210.00637,84.19975179,21.27021976,-2.58285394
2/2/17 13:57,55.56478181,317.3864019,-85.03463305,66895.05536,86486.36207,85.72823307,27.31508439,-2.58286992
2/2/17 14:07,49.59518603,86.30811379,-89.30516897,66854.80701,103602.1476,87.00329445,33.35994901,-2.58288591
2/2/17 14:17,44.86440504,136.9732423,-85.08550598,66894.22158,120461.9404,88.07766163,39.40481364,-2.58290189
2/2/17 14:27,41.03142266,145.7577391,-81.34595662,66977.73051,137024.7507,88.99314044,45.44967827,-2.58291787
2/2/17 14:37,37.86562475,152.7818328,-78.13221049,67084.30228,153276.979,89.78181565,51.4945429,-2.58293386
2/2/17 14:47,35.20728795,159.3332184,-75.33666311,67201.54705,169219.1056,90.46819259,57.53940753,-2.58294984
2/2/17 14:57,32.94305952,165.6896173,-72.87761588,67322.19529,184858.8299,91.07109061,63.58427216,-2.58296582
2/2/17 15:07,30.99062072,171.9466249,-70.69343375,67442.02631,200207.4079,91.60510071,69.6291368,-2.58298181
2/2/17 15:17,29.2889145,178.1460055,-68.7369034,67558.6474,215277.6521,92.08165994,75.67400143,-2.58299779
2/2/17 15:27,27.79178041,184.308927,-66.97126139,67670.76827,230082.8277,92.50983404,81.71886607,-2.58301377
2/2/17 15:37,26.46371456,190.4472749,-65.36744305,67777.76503,244636.0456,92.89688786,87.7637307,-2.58302975
2/2/17 15:47,25.27698357,196.5682453,-63.90215277,67879.41538,258949.9384,93.24870378,93.80859534,-2.58304574
2/2/17 15:57,24.20961976,202.6764539,-62.55648702,67975.73624,273036.4976,93.57009144,99.85345998,-2.58306172
2/2/17 16:07,23.24400206,208.7750007,-61.3149347,68066.88342,286907.0058,93.86501933,105.8983246,-2.5830777
2/2/17 16:17,22.36583399,214.8660467,-60.16463975,68153.08951,300572.0219,94.13678976,111.9431893,-2.58309368
2/2/17 16:27,21.56339564,220.9511457,-59.09484893,68234.62524,314041.3977,94.38817235,117.9880539,-2.58310966
2/2/17 16:37,20.82698831,227.0314447,-58.09649278,68311.77577,327324.3102,94.62150708,124.0329185,-2.58312564
2/2/17 16:47,20.14851633,233.1078093,-57.16186361,68384.82621,340429.3028,94.8387844,130.0777832,-2.58314162
2/2/17 16:57,19.5211685,239.1809054,-56.28436509,68454.05312,353364.3295,95.04170818,136.1226478,-2.5831576
2/2/17 17:07,18.9391724,245.2512544,-55.45831566,68519.71964,366136.7985,95.23174559,142.1675125,-2.58317358
2/2/17 17:17,18.39760306,251.3192703,-54.67879254,68582.07315,378753.6161,95.41016699,148.2123771,-2.58318956
2/2/17 17:27,17.89223236,257.3852863,-53.94150686,68641.34423,391221.2258,95.57807799,154.2572418,-2.58320554
2/2/17 17:37,17.41940946,263.4495737,-53.24270297,68697.74666,403545.6474,95.73644541,160.3021064,-2.58322152
2/2/17 17:47,16.9759651,269.5123559,-52.57907643,68751.47794,415732.5107,95.88611859,166.3469711,-2.5832375
2/2/17 17:57,16.55913427,275.5738186,-51.94770691,68802.72007,427787.0879,96.02784682,172.3918357,-2.58325348
Kernels Used,,,,,,,,
pds/data/jno-j_e_ss-spice-6-v1,,,,,,,,
